Regional Weather Roundup
Issued by NWS

Home | Current Version | Previous Version | Text Only | Print | Product List | Glossary On
Versions: 1 2 3 4 5 6 7 8 9 10 11 12 13 14 15 16 17 18 19 20 21 22 23 24 25 26 27 28 29 30 31 32 33 34 35 36 37 38 39 40 41 42 43 44 45 46 47 48 49 50
000
ASUS43 KMKX 251801
RWRWI

WISCONSIN REGIONAL WEATHER ROUNDUP
NATIONAL WEATHER SERVICE MILWAUKEE/SULLIVAN WI
100 PM CDT SAT OCT 25 2014

NOTE: "FAIR" INDICATES FEW OR NO CLOUDS BELOW 12,000 FEET WITH NO
SIGNIFICANT WEATHER AND/OR OBSTRUCTIONS TO VISIBILITY.

WIZ001-002-006>008-014>016-023>028-251900-
NORTHWEST WISCONSIN

CITY           SKY/WX    TMP DP  RH WIND       PRES   REMARKS
SUPERIOR ARPT  SUNNY     58  31  34 W22G32    29.93S
ASHLAND        SUNNY     58  32  37 W14G29    29.89F
6HR MIN TEMP:  46; 6HR MAX TEMP:  58;

HAYWARD        SUNNY     57  28  33 W15G26    29.94S
6HR MIN TEMP:  49; 6HR MAX TEMP:  57;

SIREN          SUNNY     59  28  31 NW20G25   29.98S
CUMBERLAND     SUNNY     55  28  35 NW15G24   29.98F
RICE LAKE      SUNNY     57  30  35 W12G18    29.99F
CHETEK         SUNNY     57  32  39 W12G25    29.97F
LADYSMITH      SUNNY     57  31  37 NW21      29.97R
EAU CLAIRE     NOT AVBL
MENOMONIE      SUNNY     60  31  33 W17       30.00S
NEW RICHMOND   SUNNY     59  29  31 NW16      30.02F
OSCEOLA        SUNNY     59  32  35 W15       30.04F
$$

WIZ003>005-009-010-017-018-251900-
NORTH CENTRAL WISCONSIN

CITY           SKY/WX    TMP DP  RH WIND       PRES   REMARKS
MANITOWISH WTR SUNNY     54  31  41 W13G22    29.86F
ARBOR VITAE    SUNNY     57  32  38 W13G23    29.86F
WOODRUFF       SUNNY     57  32  38 W13G23    29.86F
RHINELANDER    SUNNY     57  28  33 NW12G23   29.85F
6HR MIN TEMP:  44; 6HR MAX TEMP:  57;

EAGLE RIVER    SUNNY     56  25  30 NW18G29   29.82F
LAND O LAKES   SUNNY     56  26  32 NW20G25   29.84R
PHILLIPS       SUNNY     55  31  40 NW12G23   29.90F
TOMAHAWK       SUNNY     57  27  32 NW18G24   29.88F
MEDFORD        SUNNY     57  30  36 NW16G23   29.92R
MERRILL        SUNNY     59  30  33 NW16G28   29.88S
$$

WIZ029-030-035-036-043>047-251900-
CENTRAL WISCONSIN

CITY           SKY/WX    TMP DP  RH WIND       PRES   REMARKS
WAUSAU         SUNNY     60  26  27 NW17G29   29.87F
6HR MIN TEMP:  48; 6HR MAX TEMP:  60;

MOSINEE        SUNNY     59  28  31 NW17G26   29.90F
MARSHFIELD     SUNNY     60  33  36 W21G30    29.93R
6HR MIN TEMP:  47; 6HR MAX TEMP:  60;

STEVENS POINT  SUNNY     58  29  33 NW16G23   29.90S
WAUPACA        SUNNY     65  30  27 W18G24    29.88F
WAUTOMA        NOT AVBL
WISC RAPIDS    SUNNY     62  31  31 NW21G30   29.94S
6HR MIN TEMP:  48; 6HR MAX TEMP:  63;

CAMP DOUGLAS   NOT AVBL
$$

WIZ011>013-019>022-031-037>040-048>050-251900-
NORTHEAST WISCONSIN

CITY           SKY/WX    TMP DP  RH WIND       PRES   REMARKS
ANTIGO         SUNNY     57  31  37 NW18G29   29.85F
SHAWANO        SUNNY     64  30  28 NW18G26   29.84S
OCONTO         SUNNY     63  30  29 NW17G28   29.79S
STURGEON BAY   SUNNY     61  36  39 W13G22    29.79F
6HR MIN TEMP:  52; 6HR MAX TEMP:  61;

GREEN BAY      SUNNY     64  33  31 W17G25    29.82F
6HR MIN TEMP:  52; 6HR MAX TEMP:  64;

MANITOWOC      NOT AVBL
APPLETON       NOT AVBL
CLINTONVILLE   SUNNY     63  32  31 NW14G24   29.85S
OSHKOSH        SUNNY     63  33  32 W20G30    29.86F
6HR MIN TEMP:  52; 6HR MAX TEMP:  63;

$$

WIZ032>034-041-042-053>061-251900-
SOUTHWEST WISCONSIN

CITY           SKY/WX    TMP DP  RH WIND       PRES   REMARKS
LA CROSSE      SUNNY     65  33  30 NW15      30.00F
6HR MIN TEMP:  43; 6HR MAX TEMP:  66;

SPARTA         SUNNY     64  29  26 W12G20    29.98F
VIROQUA        SUNNY     63  29  28 NW14G21   30.01S
BOSCOBEL       SUNNY     68  36  30 W13       30.00F
6HR MIN TEMP:  49; 6HR MAX TEMP:  68;

PRAIRIE DU CHI SUNNY     65  30  27 NW10      30.02F
PLATTEVILLE    SUNNY     66  35  32 W12       30.02F
$$

WIZ056-057-062-063-064-067-068-251900-
SOUTH CENTRAL WISCONSIN

CITY           SKY/WX    TMP DP  RH WIND       PRES   REMARKS
REEDSBURG      SUNNY     64  33  31 W13G23    29.95F
BARABOO/DELLS  SUNNY     65  28  25 W17G23    29.95S
LONE ROCK      NOT AVBL
MINERAL POINT  SUNNY     66  28  24 NW8G18    30.00F
MADISON        MOSUNNY   67  31  26 W15G23    29.94F
6HR MIN TEMP:  54; 6HR MAX TEMP:  67;

MIDDLETON      SUNNY     67  32  26 W13G18    29.96F
WATERTOWN      SUNNY     65  32  29 NW15G24   29.91F
MONROE         SUNNY     64  34  32 W15G22    29.98F
JANESVILLE     SUNNY     70  34  26 NW12G17   29.95F
$$

WIZ051-052-058>065-066-070>072-251900-
SOUTHEAST WISCONSIN

CITY           SKY/WX    TMP DP  RH WIND       PRES   REMARKS
MILWAUKEE      MOSUNNY   66  32  28 W17G26    29.89F
6HR MIN TEMP:  56; 6HR MAX TEMP:  67;

WAUKESHA       SUNNY     63  34  34 W17G28    29.92F
MILWAUKEE/TIMM SUNNY     66  30  26 W23       29.89F
RACINE         SUNNY     68  35  29 W15G23    29.92F
6HR MIN TEMP:  54; 6HR MAX TEMP:  68;

BURLINGTON     SUNNY     65  37  34 NW14G20   29.92F
KENOSHA        SUNNY     68  39  34 W16G25    29.91F
6HR MIN TEMP:  54; 6HR MAX TEMP:  68;

FOND DU LAC    SUNNY     63  33  32 W21G30    29.88F
6HR MIN TEMP:  53; 6HR MAX TEMP:  63;

SHEBOYGAN      SUNNY     63  32  31 W23G30    29.85F
6HR MIN TEMP:  54; 6HR MAX TEMP:  64;

WEST BEND      SUNNY     64  28  25 W21G29    29.88F
JUNEAU         SUNNY     64  32  30 NW13G23   29.91F
$$

LSZ147-162-251900-
LAKE SUPERIOR

STATION/POSITION TIME  TEMP    WIND        PRES    WAVE
                       AIR SEA DIR/SP/G            HT/PER
                 (UTC) (F)     (DEG/KT/KT) (MB)    (FT/S)
W MID LAKE BUOY  1650   49 46  240/ 21/ 25 1008.4R
DEVILS ISLAND    1700   50     260/ 21/ 24 1011.0F
PORT WING        1700   53     260/ 12/ 19 1012.9
SAXON HARBOR     1700   55     280/ 12/ 21 1011.9F
$$

LMZ867-665-643>646-251900-
LAKE MICHIGAN

STATION/POSITION TIME  TEMP    WIND        PRES    WAVE
                       AIR SEA DIR/SP/G            HT/PER
                 (UTC) (F)     (DEG/KT/KT) (MB)    (FT/S)
CHAMBERS ISLAND  1700   62     280/  3/  9 1008.1F
N MID LAKE BUOY  1650   54 51  280/ 14/ 17 1006.8F   3/ 4
NORTHPORT PIER   1700   58     300/  9/ 16 1007.5S
SISTER BAY       1613          300/ 17/ 19   N/A
ALGOMA LAKESHORE 1556          310/ 13/ 23   N/A
KEWAUNEE LAKESHO 1700   60     290/ 13/ 23 1008.6F
SHEBOYGAN LAKESH 1700   62 51  290/ 19/ 22 1011.1F
PORT WASHINGTON  1740   66     290/ 10/ 17 1011.9F
ATWATER BUOY     1700   61     280/ 16/ 21 1013.4F
MILWAUKEE LAKESH 1700   63     300/ 16/ 23   N/A
S MID LAKE BUOY  1650   56 54  280/ 14/ 14 1012.9R   2/ 4
KENOSHA   LAKESH 1700   65     280/ 15/ 21 1012.9F
$$

TC  - TEMPERATURE IN CELSIUS
VSB - VISIBILITY IN STATUTE MILES
WCI - WIND CHILL INDEX
HX  - HEAT INDEX




USA.gov is the U.S. government's official web portal to all federal, state and local government web resources and services.